Location: Unspecified
(0.0000°N, 0.0000°E)
Time: 01:51:45
(UTC+00:00)

Courier 1B Rocket - Pass Details

Date: 05 October 2020
Orbit: 920 x 1202 km, 28.2° (Epoch: 25 October)

Event Time Altitude Azimuth Distance (km) Brightness Sun altitude
Rises 20:01:54 0° 211° (SSW) 4,065 8.7 -33.3°
Reaches altitude 10° 20:07:03 10° 183° (S) 3,128 7.7 -34.6°
Enters shadow 20:08:36 12° 172° (S) 2,996 7.5 -34.9°
